Driggs, ID

8:04 PM MST on February 20, 2017 (GMT -0700)
Driggs

Weather History for KDIJ - February, 2013

Change the Weather History Date:

Thursday, February 14, 2013

  Actual Average (KJAC) Record (KJAC)
Temperature  
Mean Temperature 22 °F -  
Max Temperature 29 °F 32 °F 44 °F (1981)
Min Temperature 14 °F 9 °F -19 °F (1959)
Degree Days  
Heating Degree Days 44    
Moisture  
Dew Point 18 °F    
Average Humidity 82    
Maximum Humidity 100    
Minimum Humidity 58    
Precipitation  
Precipitation 0.01 in - - ()
Sea Level Pressure  
Sea Level Pressure 30.29 in    
Wind  
Wind Speed 4 mph (SE)    
Max Wind Speed 8 mph    
Max Gust Speed -    
Visibility 9 miles    
Events Snow    
Averages and records for this station are not official NWS values.
T = Trace of Precipitation, MM = Missing Value Source: NWS Daily Summary

Daily Weather History Graph

Daily Weather History Graph

Search for Another Location

Airport or City:

Trip Planner

Search our weather history database for the weather conditions in past years. The results will help you decide how hot, cold, wet, or windy it might be!

Date:

Astronomy

Feb. 14, 2013 Rise Set
Actual Time 7:24 AM MST 5:53 PM MST
Civil Twilight 6:54 AM MST 6:23 PM MST
Nautical Twilight 6:20 AM MST 6:56 PM MST
Astronomical Twilight 5:47 AM MST 7:30 PM MST
Moon 9:17 AM MST (2/14) 11:12 PM MST (2/14)
Length of Visible Light 11h 28m
Length of Day
10h 29m
Waxing Crescent, 22% of the Moon is Illuminated
Feb 14
Waxing Crescent
Feb 17
First Quarter
Feb 25
Full
Mar 4
Last Quarter
Mar 11
New

Hourly Weather History & Observations

Time (MST) Temp. Windchill Dew Point Humidity Pressure Visibility Wind Dir Wind Speed Gust Speed Precip Events Conditions
12:08 AM 26.6 °F 22.6 °F 24.8 °F 93% 30.13 in 1.2 mi SSE 3.5 mph - 0.00 in Snow Light Snow
12:19 AM 26.6 °F 20.0 °F 24.8 °F 93% 30.13 in 2.0 mi SSE 5.8 mph - 0.00 in Snow Light Snow
12:27 AM 26.6 °F 21.2 °F 24.8 °F 93% 30.13 in 4.0 mi SSE 4.6 mph - 0.00 in Snow Light Snow
12:38 AM 24.8 °F 19.1 °F 24.8 °F 100% 30.13 in 7.0 mi SSE 4.6 mph - 0.00 in   Overcast
12:56 AM 25.2 °F 17.3 °F 23.0 °F 91% 30.17 in 7.0 mi South 6.9 mph - 0.00 in   Mostly Cloudy
1:56 AM 21.0 °F 12.4 °F 20.1 °F 96% 30.20 in 9.0 mi SE 6.9 mph - N/A   Mostly Cloudy
2:56 AM 22.1 °F - 20.1 °F 92% 30.20 in 10.0 mi Calm Calm - N/A   Overcast
3:56 AM 21.0 °F - 17.1 °F 85% 30.21 in 10.0 mi Calm Calm - N/A   Overcast
4:56 AM 21.0 °F 12.4 °F 18.1 °F 89% 30.26 in 10.0 mi NE 6.9 mph - N/A   Overcast
5:56 AM 22.1 °F 15.9 °F 18.1 °F 85% 30.25 in 10.0 mi ENE 4.6 mph - N/A   Overcast
6:56 AM 17.1 °F 8.7 °F 14.0 °F 88% 30.29 in 10.0 mi SW 5.8 mph - N/A   Mostly Cloudy
8:56 AM 15.1 °F - 12.0 °F 88% 30.35 in 10.0 mi Calm Calm - N/A   Clear
9:56 AM 14.0 °F 3.9 °F 9.1 °F 81% 30.36 in 10.0 mi ENE 6.9 mph - N/A   Scattered Clouds
10:56 AM 25.2 °F - 14.0 °F 63% 30.32 in 10.0 mi Calm Calm - N/A   Clear
11:56 AM 29.1 °F - 16.2 °F 58% 30.32 in 10.0 mi Calm Calm - 0.01 in   Clear
12:56 PM 29.1 °F 23.0 °F 16.2 °F 58% 30.32 in 10.0 mi NE 5.8 mph - N/A   Clear
1:56 PM 28.0 °F 21.7 °F 17.1 °F 63% 30.33 in 10.0 mi ENE 5.8 mph - N/A   Mostly Cloudy
2:56 PM 24.1 °F 18.2 °F 20.1 °F 85% 30.35 in 10.0 mi NW 4.6 mph - N/A   Scattered Clouds
3:56 PM 25.2 °F 20.9 °F 19.0 °F 78% 30.35 in 10.0 mi NNW 3.5 mph - N/A   Clear
4:56 PM 22.1 °F 14.7 °F 16.2 °F 78% 30.37 in 10.0 mi NE 5.8 mph - N/A   Mostly Cloudy
5:56 PM 23.0 °F 17.0 °F 16.2 °F 75% 30.36 in 10.0 mi East 4.6 mph - N/A   Overcast
6:56 PM 23.0 °F 14.7 °F 16.2 °F 75% 30.39 in 10.0 mi SSE 6.9 mph - N/A   Overcast
7:56 PM 23.0 °F 17.0 °F 17.1 °F 78% 30.43 in 10.0 mi SSE 4.6 mph - N/A   Overcast
8:56 PM 23.0 °F 13.9 °F 18.1 °F 82% 30.41 in 10.0 mi SSE 8.1 mph - N/A   Overcast
9:56 PM 24.1 °F 17.0 °F 19.0 °F 81% 30.41 in 10.0 mi South 5.8 mph - N/A   Overcast
10:56 PM 25.2 °F 18.3 °F 19.0 °F 78% 30.36 in 10.0 mi SSE 5.8 mph - N/A   Overcast
11:56 PM 25.2 °F - 18.1 °F 75% 30.37 in 10.0 mi Calm Calm - N/A   Overcast